• Join FlightAware (Why Join?)
  • Login
  • US Flag 
02:29PM EDT


 

Airport Tracker/Info


-or-


 

Live Flight TrackerFlight Track Log ✈ FLG4081 ✈ 2013年 04月 24日 ✈ KDTW - KAZO

Flight Track Log - Related Links

Times and Time Zones

All times are in EDT time to prevent confusion due to time zone crossing. See the FLG4081 flight status page for this flight to view local times or setup timezone preferences in your user account.

Time Position Orientation Groundspeed Altitude Reporting Facility
EDT Latitude Longitude Course Direction KTS MPH feet Rate Location/Type
10:17PM 42.2072 -83.3531 274° West 158 182 1,300  Level FAA TRACON SMA TRACON (SMA)
10:18PM 42.2047 -83.3706 259° West 159 183 2,400 2,760 Climbing FAA TRACON SMA TRACON (SMA)
10:18PM 42.2042 -83.3936 268° West 185 213 3,200 1,800 Climbing FAA TRACON SMA TRACON (SMA)
10:18PM 42.2033 -83.4169 267° West 221 254 3,600 1,680 Climbing FAA TRACON SMA TRACON (SMA)
10:19PM 42.2025 -83.4372 267° West 232 267 4,300 2,040 Climbing FAA TRACON SMA TRACON (SMA)
10:19PM 42.2000 -83.4817 266° West 255 293 5,000 1,800 Climbing FAA TRACON SMA TRACON (SMA)
10:19PM 42.1986 -83.5100 266° West 262 302 5,500 2,700 Climbing FAA TRACON SMA TRACON (SMA)
10:20PM 42.2273 -83.7357 274° West  Level FlightAware Approximate
10:20PM 42.2025 -83.5458 278° West 245 282 6,800  Level FAA TRACON SMA TRACON (SMA)
10:20PM 42.2053 -83.5739 278° West 252 290 7,600 2,460 Climbing FAA TRACON SMA TRACON (SMA)
10:20PM 42.2081 -83.6028 277° West 252 290 8,400 2,040 Climbing FAA TRACON SMA TRACON (SMA)
10:21PM 42.2346 -83.8652 274° West  Level FlightAware Approximate
10:21PM 42.2108 -83.6319 277° West 254 292 9,000  Level FAA TRACON SMA TRACON (SMA)
10:21PM 42.2144 -83.6689 278° West 258 297 9,000 120 Level FAA TRACON SMA TRACON (SMA)
10:21PM 42.2178 -83.7003 278° West 279 321 9,100 120 Climbing FAA TRACON SMA TRACON (SMA)
10:22PM 42.2417 -83.9946 274° West  Level FlightAware Approximate
10:22PM 42.2206 -83.7311 277° West 271 312 9,100  Level FAA TRACON SMA TRACON (SMA)
10:22PM 42.2244 -83.7692 278° West 269 310 9,300 1,140 Climbing FAA TRACON SMA TRACON (SMA)
10:22PM 42.2272 -83.7992 277° West 262 302 9,900 1,020 Climbing FAA TRACON SMA TRACON (SMA)
10:23PM 42.2303 -83.8292 278° West 264 304 10,000 300 Climbing FAA TRACON SMA TRACON (SMA)
10:23PM 42.2342 -83.8683 278° West 272 313 10,100 120 Climbing FAA TRACON SMA TRACON (SMA)
10:23PM 42.2378 -83.9031 278° West 301 346 10,100  Level FAA TRACON SMA TRACON (SMA)
10:24PM 42.2408 -83.9375 277° West 306 352 10,100  Level FAA TRACON SMA TRACON (SMA)
10:24PM 42.2450 -83.9819 277° West 310 357 10,100  Level FAA TRACON SMA TRACON (SMA)
10:24PM 42.2483 -84.0181 277° West 312 359 10,100  Level FAA TRACON SMA TRACON (SMA)
10:25PM 42.2517 -84.0547 277° West 317 365 10,100  Level FAA TRACON SMA TRACON (SMA)
10:25PM 42.2564 -84.1017 278° West 327 376 10,100 -180 Level FAA TRACON SMA TRACON (SMA)
10:25PM 42.2600 -84.1394 277° West 327 376 10,000 -180 Descending FAA TRACON SMA TRACON (SMA)
10:26PM 42.2633 -84.1772 277° West 329 379 10,000  Level FAA TRACON SMA TRACON (SMA)
10:26PM 42.2631 -84.2258 270° West 340 391 10,000 120 Level FAA TRACON SMA TRACON (SMA)
10:26PM 42.2625 -84.2642 269° West 334 384 10,100  Climbing FAA TRACON SMA TRACON (SMA)
10:27PM 42.2619 -84.3028 269° West 335 386 10,000 -180 Descending FAA TRACON SMA TRACON (SMA)
10:27PM 42.2619 -84.3514 270° West 337 388 10,000 120 Level FAA TRACON SMA TRACON (SMA)
10:27PM 42.2614 -84.3903 269° West 336 387 10,100  Climbing FAA TRACON SMA TRACON (SMA)
10:28PM 42.2606 -84.4292 268° West 336 387 10,000  Descending FAA TRACON SMA TRACON (SMA)
10:28PM 42.2597 -84.4781 269° West 338 389 10,100  Climbing FAA TRACON SMA TRACON (SMA)
10:28PM 42.2597 -84.5172 270° West 338 389 10,000 -180 Descending FAA TRACON SMA TRACON (SMA)
10:29PM 42.2589 -84.5464 268° West 338 389 10,000  Level FAA TRACON SMA TRACON (SMA)
10:30PM 42.2547 -84.7292 268° West 340 391 10,000  Level Chicago Center
10:31PM 42.2528 -84.8561 269° West 340 391 10,000 -360 Level Chicago Center
10:32PM 42.2478 -84.9556 266° West 278 320 9,300 -1,020 Descending Chicago Center
10:33PM 42.2258 -85.0581 254° West 253 291 8,000 -1,140 Descending Chicago Center
10:34PM 42.2031 -85.1511 252° West 259 298 7,000 -1,020 Descending Chicago Center
10:35PM 42.1800 -85.2436 251° West 262 302 6,000 -1,020 Descending Chicago Center
10:36PM 42.1600 -85.3300 253° West 251 289 5,000 -1,080 Descending Chicago Center
10:37PM 42.1467 -85.4119 258° West 235 270 3,900 -1,020 Descending Chicago Center
10:38PM 42.1444 -85.4769 267° West 192 221 3,000 -840 Descending Chicago Center
10:39PM 42.1631 -85.5267 297° West 160 184 2,200 -840 Descending Chicago Center
10:40PM 42.2033 -85.5469 340° North 157 181 1,400 -540 Descending Chicago Center
10:41PM 42.2469 -85.5583 349° North 158 182 1,200 -240 Descending Chicago Center